Regional Weather Roundup
Issued by NWS

Home | Current Version | Previous Version | Text Only | Print | Product List | Glossary On
Versions: 1 2 3 4 5 6 7 8 9 10 11 12 13 14 15 16 17 18 19 20 21 22 23 24 25 26 27 28 29 30 31 32 33 34 35 36 37 38 39 40 41 42 43 44 45 46 47
000
ASUS43 KDMX 310807
RWRIA

WEATHER ROUNDUP FOR IOWA
NATIONAL WEATHER SERVICE DES MOINES IA
300 AM CDT THU JUL 31 2014

NOTE: "FAIR" INDICATES FEW OR NO CLOUDS BELOW 12,000 FEET WITH NO
SIGNIFICANT WEATHER AND/OR OBSTRUCTIONS TO VISIBILITY.

* - THESE STATIONS ARE NOT NWS STATIONS...THUS NOT UNDER NWS
QUALITY CONTROL.  THEY ALSO DO NOT REPORT WEATHER SUCH
AS PRECIPITATION OR FOG.

IAZ001>003-012>014-020>022-031>034-043>046-310900-
   NORTHWEST IOWA

CITY           SKY/WX    TMP DP  RH WIND       PRES   REMARKS
CARROLL *      CLOUDY    52  52 100 CALM      30.10S
CHEROKEE *     CLEAR     54  54 100 CALM      30.11S
DENISON *      PTCLDY    54  54 100 CALM      30.09F FOG
LE MARS *      CLEAR     54  52  94 CALM      30.10F
ORANGE CITY *  CLEAR     61  52  72 CALM      30.10F
SHELDON *      CLEAR     52  52 100 E3        30.09S
SIOUX CITY     CLEAR     54  52  93 SE3       30.10F
SPENCER        CLEAR     53  51  93 W3        30.10S FOG
STORM LAKE *   CLEAR     57  57 100 SW6       30.11S
$$

IAZ055>058-069>071-079>083-090>094-310900-
   SOUTHWEST IOWA

CITY           SKY/WX    TMP DP  RH WIND       PRES   REMARKS
ATLANTIC *     CLOUDY    54  52  94 CALM      30.10F
AUDUBON *      CLEAR     54  52  94 CALM      30.12S
CLARINDA *     CLEAR     54  54 100 N5        30.12S
COUNCIL BLFS *   N/A     63  57  82 CALM      30.10F
CRESTON *      CLEAR     61  55  82 NW5       30.11S
HARLAN  *      CLEAR     52  52 100 CALM      30.14F
LAMONI         CLEAR     60  55  83 N3        30.10S
RED OAK *      PTCLDY    54  52  94 CALM      30.11F
SHENANDOAH *   CLEAR     55  54  94 CALM      30.11F FOG
$$

IAZ047>049-059>061-072>074-084-310900-
   CENTRAL IOWA

CITY           SKY/WX    TMP DP  RH WIND       PRES   REMARKS
AMES           CLEAR     56  54  93 W3        30.09S
ANKENY *       CLEAR     55  55 100 CALM      30.09S
CHARITON *     CLEAR     61  57  88 CALM      30.10R
DES MOINES     CLEAR     64  57  78 CALM      30.08F
GRINNELL*      CLEAR     59  57  94 NW3       30.09S
KNOXVILLE *    CLEAR     59  55  88 SW5       30.08S
MARSHALLTOWN   CLEAR     59  57  93 NW5       30.08S
PELLA *        CLEAR     61  57  88 CALM      30.09F
PERRY *          N/A     57  55  94 W5        30.09F
$$

IAZ004>006-015-016-023>025-035-036-310900-
   NORTH CENTRAL IOWA

CITY           SKY/WX    TMP DP  RH WIND       PRES   REMARKS
ALGONA *       CLEAR     59  55  88 W3        30.09S
CLARION *      CLEAR     55  55 100 CALM      30.09S
ESTHERVILLE    CLEAR     56  53  90 CALM      30.09S
FORT DODGE *   MOCLDY    55  54  94 CALM      30.10S VSB 1/2
MASON CITY     CLEAR     55  54  96 W5        30.09S
FOREST CITY *  FOG       52  52 100 CALM      30.09S VSB 1/4
IOWA FALLS *     N/A     57  55  94 CALM      30.09S
$$

IAZ007>011-017>019-026>030-037>042-050>054-066-310900-
   NORTHEAST IOWA

CITY           SKY/WX    TMP DP  RH WIND       PRES   REMARKS
CEDAR RAPIDS   CLEAR     59  57  93 W5        30.06F
CHARLES CITY * CLEAR     57  55  94 W5        30.08S
CLINTON *      CLEAR     57  55  94 W6        30.08S
DECORAH *      PTCLDY    61  57  88 SW3       30.05S
DUBUQUE        CLEAR     58  57  97 SW5       30.05F
MONTICELLO *   PTCLDY    57  57 100 CALM      30.05F FOG
OELWEIN *      CLEAR     61  59  94 NW5       30.07S
WATERLOO       CLEAR     60  58  92 CALM      30.06S
$$

IAZ064-065-067-068-078-310900-
   EAST CENTRAL IOWA

CITY           SKY/WX    TMP DP  RH WIND       PRES   REMARKS
DAVENPORT      CLEAR     59  57  93 W5        30.06F
IOWA CITY      CLEAR     61  59  93 CALM      30.07F
MT. PLEASANT * CLEAR     59  57  94 CALM      30.08S
MUSCATINE *    CLEAR     63  59  88 CALM      30.06S
QUAD CITIES    CLEAR     60  56  86 CALM      30.05F
$$

IAZ062-063-075>077-085>089-095>099-310900-
   SOUTHEAST IOWA

CITY           SKY/WX    TMP DP  RH WIND       PRES   REMARKS
BURLINGTON     CLEAR     59  57  93 NW3       30.07S
FAIRFIELD *    CLEAR     59  57  94 SW5       30.08S
FORT MADISON * CLEAR     63  61  94 W3        30.08S
KEOKUK *       CLEAR     61  61 100 CALM      30.07S
OSKALOOSA *      N/A     59  57  94 W5        30.08S
CENTERVILLE *  CLEAR     55  55 100 CALM      30.11S
OTTUMWA        CLEAR     59  57  93 W5        30.08S
WASHINGTON *   CLEAR     59  57  94 W5        30.07S
$$

ABBREVIATIONS USED IN REMARKS
   TC - TEMPERATURES IN CELSIUS
  WCI - WIND CHILL INDEX
   HX - HEAT INDEX
  VSB - VISIBILITY
$$



USA.gov is the U.S. government's official web portal to all federal, state and local government web resources and services.